DW1653 Weather Reports


Display with metric or nautical units.
time (UTC)temp
F
wind
direction
speed
MPH
gust
MPH
rain 1hr
in
rain 24hr
in
rain mn
in
humidity
%
barometer
mb
20260510030818 52 46 0.0 1.0 0.00 0.01 0.01 89 1011.2
20260510030329 52 46 0.0 1.0 0.00 0.01 0.01 89 1011.2
20260510025824 52 46 0.0 0.0 0.00 0.01 0.01 89 1011.1
20260510025315 52 46 0.0 0.0 0.00 0.01 0.01 89 1011.2
20260510024829 52 46 0.0 0.0 0.00 0.01 0.01 89 1011.2
20260510024319 52 46 0.0 0.0 0.00 0.01 0.01 89 1011.2
20260510023815 52 46 0.0 0.0 0.00 0.01 0.01 89 1011.1
20260510023333 52 46 0.0 0.0 0.00 0.01 0.01 89 1011.1
20260510022824 53 46 0.0 0.0 0.00 0.01 0.01 89 1011.2
20260510022336 53 46 0.0 0.0 0.00 0.01 0.01 89 1011.2
20260510021847 53 46 0.0 0.0 0.00 0.01 0.01 89 1011.3
20260510021317 53 46 0.0 1.0 0.00 0.01 0.01 89 1011.2
20260510020828 53 46 0.0 2.0 0.00 0.01 0.01 89 1011.1
20260510020320 53 46 0.0 2.0 0.00 0.01 0.01 89 1011.2
20260510015851 53 46 1.0 2.0 0.00 0.01 0.01 89 1011.2
20260510015322 53 46 0.0 0.0 0.00 0.01 0.01 89 1011.3
20260510014834 53 46 0.0 2.0 0.00 0.01 0.01 89 1011.3
20260510014329 53 46 0.0 2.0 0.00 0.01 0.01 89 1011.2
20260510013843 54 46 0.0 2.0 0.00 0.01 0.01 89 1011.2
20260510013334 54 46 1.0 2.0 0.00 0.01 0.01 89 1011.2
20260510012825 54 46 0.0 2.0 0.00 0.01 0.01 89 1011.2
20260510012316 54 46 0.0 3.0 0.00 0.01 0.01 89 1011.1
20260510011826 54 46 1.0 3.0 0.00 0.01 0.01 89 1011.1
20260510011316 54 59 1.0 3.0 0.00 0.01 0.01 88 1011.1
20260510010828 54 46 1.0 3.0 0.00 0.01 0.01 89 1011.1
20260510010322 54 44 0.0 3.0 0.00 0.01 0.01 89 1011.1
20260510005818 54 39 1.0 3.0 0.00 0.01 0.01 88 1011.0
20260510005329 54 80 1.0 3.0 0.00 0.01 0.01 88 1011.0
20260510004820 54 46 2.0 3.0 0.00 0.01 0.01 88 1010.9
20260510004332 54 34 2.0 4.0 0.00 0.01 0.01 88 1010.8
20260510003824 55 55 2.0 4.0 0.00 0.01 0.01 88 1010.8
20260510003315 55 55 1.0 5.0 0.00 0.01 0.01 88 1010.9
20260510002322 55 53 2.0 4.0 0.00 0.01 0.01 88 1010.9
20260510001854 55 53 1.0 4.0 0.00 0.01 0.01 88 1010.9
20260510001328 55 61 0.0 3.0 0.00 0.01 0.01 88 1010.9
20260510000820 56 58 1.0 4.0 0.00 0.01 0.01 88 1010.6
20260510000330 56 69 1.0 4.0 0.00 0.01 0.01 88 1010.5
20260509235822 56 52 1.0 5.0 0.00 0.01 0.01 88 1010.5
20260509235313 56 46 2.0 5.0 0.00 0.01 0.01 88 1010.5
20260509234828 57 33 2.0 5.0 0.00 0.01 0.01 88 1010.4
20260509234319 57 62 2.0 6.0 0.00 0.01 0.01 88 1010.4
20260509233834 57 75 3.0 6.0 0.01 0.01 0.01 88 1010.4
20260509233329 58 71 3.0 6.0 0.01 0.01 0.01 88 1010.3
20260509232311 58 38 3.0 7.0 0.01 0.01 0.01 88 1010.3
20260509231826 58 53 2.0 6.0 0.01 0.01 0.01 88 1010.3
20260509231317 58 20 2.0 8.0 0.01 0.01 0.01 89 1010.3
20260509230829 58 28 4.0 8.0 0.01 0.01 0.01 89 1010.4
20260509230340 59 57 4.0 7.0 0.01 0.01 0.01 89 1010.5
20260509225830 59 30 2.0 6.0 0.01 0.01 0.01 89 1010.5
20260509225321 59 36 3.0 8.0 0.01 0.01 0.01 89 1010.4
20260509224816 59 355 3.0 9.0 0.01 0.01 0.01 90 1010.4
20260509224328 59 34 3.0 9.0 0.01 0.01 0.01 90 1010.4
20260509223823 59 98 2.0 4.0 0.00 0.00 0.00 90 1010.6
20260509223315 58 331 1.0 3.0 0.00 0.00 0.00 90 1011.4
20260509222827 58 293 1.0 2.0 0.00 0.00 0.00 90 1011.3
20260509222318 58 265 1.0 2.0 0.00 0.00 0.00 90 1011.1
20260509221830 58 157 0.0 1.0 0.00 0.00 0.00 90 1011.0
20260509221321 57 127 0.0 1.0 0.00 0.00 0.00 89 1010.8
20260509220852 57 127 0.0 1.0 0.00 0.00 0.00 90 1010.8
20260509220326 57 127 0.0 3.0 0.00 0.00 0.00 90 1010.8
20260509215819 57 127 2.0 3.0 0.00 0.00 0.00 89 1010.8
20260509215330 57 125 1.0 4.0 0.00 0.00 0.00 89 1010.8
20260509214820 57 150 2.0 4.0 0.00 0.00 0.00 89 1010.8
20260509214332 57 136 1.0 3.0 0.00 0.00 0.00 89 1010.6
20260509213823 57 157 1.0 3.0 0.00 0.00 0.00 89 1010.5
20260509213315 57 123 0.0 3.0 0.00 0.00 0.00 89 1010.2
20260509212826 57 148 1.0 3.0 0.00 0.00 0.00 89 1010.4
20260509212320 57 175 1.0 3.0 0.00 0.00 0.00 89 1010.4
20260509211832 57 183 1.0 3.0 0.00 0.00 0.00 89 1010.5
20260509211324 57 138 2.0 4.0 0.00 0.00 0.00 89 1010.5
20260509210815 57 133 2.0 6.0 0.00 0.00 0.00 89 1010.5
20260509210327 57 143 2.0 6.0 0.00 0.00 0.00 89 1010.6
20260509205822 57 166 2.0 7.0 0.00 0.00 0.00 89 1010.7
20260509205333 57 190 4.0 9.0 0.00 0.00 0.00 88 1010.7
20260509204844 57 157 5.0 9.0 0.00 0.00 0.00 88 1010.7
20260509204335 57 110 3.0 10.0 0.00 0.00 0.00 88 1010.7
20260509203826 57 146 3.0 10.0 0.00 0.00 0.00 88 1010.9
20260509203322 58 203 6.0 10.0 0.00 0.00 0.00 87 1010.8
20260509202833 58 142 3.0 11.0 0.00 0.00 0.00 87 1010.8
20260509202325 58 196 5.0 14.0 0.00 0.00 0.00 87 1010.5
20260509201816 58 157 7.0 13.0 0.00 0.00 0.00 87 1010.6
20260509201328 58 170 4.0 9.0 0.00 0.00 0.00 86 1010.5
20260509200819 58 123 3.0 10.0 0.00 0.00 0.00 86 1010.6
20260509200311 58 188 4.0 12.0 0.00 0.00 0.00 86 1010.7
20260509195825 58 117 3.0 14.0 0.00 0.00 0.00 85 1010.8
20260509195321 58 192 6.0 14.0 0.00 0.00 0.00 85 1011.0
20260509194812 57 212 5.0 13.0 0.00 0.00 0.00 85 1011.0
20260509194326 57 191 5.0 12.0 0.00 0.00 0.00 84 1010.9
20260509193817 57 184 4.0 18.0 0.00 0.00 0.00 84 1010.8
20260509193331 58 155 7.0 18.0 0.00 0.00 0.00 84 1010.9
20260509192822 58 279 5.0 23.0 0.00 0.00 0.00 83 1010.9
20260509192318 58 175 10.0 23.0 0.00 0.00 0.00 83 1010.9
20260509191848 58 165 11.0 17.0 0.00 0.00 0.00 82 1010.9
20260509191339 59 49 7.0 18.0 0.00 0.00 0.00 83 1010.9
20260509190816 59 132 5.0 17.0 0.00 0.00 0.00 82 1010.8
20260509190331 59 160 7.0 19.0 0.00 0.00 0.00 82 1010.9
20260509185822 59 188 7.0 23.0 0.00 0.00 0.00 81 1010.9
20260509185317 60 173 9.0 23.0 0.00 0.00 0.00 80 1010.7
20260509184828 60 163 9.0 24.0 0.00 0.00 0.00 80 1010.7
20260509184318 60 185 11.0 25.0 0.00 0.00 0.00 80 1010.8
20260509183830 60 164 9.0 25.0 0.00 0.00 0.00 79 1010.8
20260509183324 61 186 10.0 23.0 0.00 0.00 0.00 78 1010.9
20260509182820 61 160 9.0 23.0 0.00 0.00 0.00 76 1011.0
20260509182330 61 190 12.0 22.0 0.00 0.00 0.00 74 1011.0
20260509181825 62 127 8.0 17.0 0.00 0.00 0.00 75 1011.0
20260509181316 61 194 7.0 16.0 0.00 0.00 0.00 77 1010.9
20260509180828 60 203 8.0 16.0 0.00 0.00 0.00 78 1010.9
20260509180318 60 233 6.0 23.0 0.00 0.00 0.00 78 1010.9
20260509175830 59 157 10.0 23.0 0.00 0.00 0.00 78 1010.8
20260509175321 59 166 7.0 20.0 0.00 0.00 0.00 78 1010.8
20260509174853 59 155 9.0 20.0 0.00 0.00 0.00 77 1010.9
20260509174327 59 167 7.0 24.0 0.00 0.00 0.00 78 1010.9
20260509173822 59 92 8.0 24.0 0.00 0.00 0.00 77 1010.9
20260509173355 59 150 8.0 21.0 0.00 0.00 0.00 76 1010.9
20260509172825 60 164 8.0 21.0 0.00 0.00 0.00 74 1010.8
20260509172319 62 223 6.0 17.0 0.00 0.00 0.00 74 1010.9
20260509171831 63 149 6.0 13.0 0.00 0.00 0.00 74 1010.7
20260509171323 63 208 6.0 13.0 0.00 0.00 0.00 74 1010.7
20260509170835 64 200 8.0 13.0 0.00 0.00 0.00 74 1010.7
20260509170325 63 128 5.0 15.0 0.00 0.00 0.00 74 1010.7
20260509165821 63 159 7.0 15.0 0.00 0.00 0.00 73 1010.7
20260509165314 63 181 6.0 18.0 0.00 0.00 0.00 72 1010.8
20260509164826 63 192 7.0 18.0 0.00 0.00 0.00 72 1010.8
20260509164318 63 117 4.0 15.0 0.00 0.00 0.00 73 1011.0
20260509163830 63 128 6.0 13.0 0.00 0.00 0.00 73 1011.2
20260509163321 63 148 7.0 19.0 0.00 0.00 0.00 73 1011.3
20260509162832 63 207 8.0 19.0 0.00 0.00 0.00 72 1011.5
20260509162324 63 168 4.0 12.0 0.00 0.00 0.00 73 1011.5
20260509161820 64 186 7.0 13.0 0.00 0.00 0.00 72 1011.6
20260509161331 63 193 5.0 15.0 0.00 0.00 0.00 73 1011.7
20260509160822 63 153 5.0 17.0 0.00 0.00 0.00 73 1011.7
20260509160318 63 171 6.0 19.0 0.00 0.00 0.00 72 1011.9
20260509155832 63 181 8.0 19.0 0.00 0.00 0.00 71 1012.0
20260509155323 64 200 8.0 15.0 0.00 0.00 0.00 70 1012.0
20260509154818 64 244 4.0 12.0 0.00 0.00 0.00 70 1012.1
20260509154332 65 196 6.0 12.0 0.00 0.00 0.00 69 1012.0
20260509153843 65 172 5.0 12.0 0.00 0.00 0.00 69 1012.1
20260509153318 65 117 4.0 15.0 0.00 0.00 0.00 70 1012.0
20260509152850 66 157 8.0 16.0 0.00 0.00 0.00 68 1012.1
20260509152320 66 170 6.0 16.0 0.00 0.00 0.00 68 1012.1
20260509151851 66 154 5.0 10.0 0.00 0.00 0.00 69 1012.2
20260509151321 66 175 5.0 10.0 0.00 0.00 0.00 69 1012.2
20260509150833 66 168 5.0 15.0 0.00 0.00 0.00 68 1012.2
20260509150324 66 165 4.0 15.0 0.00 0.00 0.00 69 1012.3
20260509145816 66 211 5.0 12.0 0.00 0.00 0.00 68 1012.3
20260509145328 66 196 8.0 14.0 0.00 0.00 0.00 67 1012.2
20260509144826 67 169 6.0 14.0 0.00 0.00 0.00 67 1012.3
20260509144318 67 171 5.0 12.0 0.00 0.00 0.00 67 1012.3
20260509143849 67 161 5.0 12.0 0.00 0.00 0.00 67 1012.2
20260509143319 67 212 6.0 13.0 0.00 0.00 0.00 66 1012.3
20260509142813 67 175 4.0 13.0 0.00 0.00 0.00 66 1012.3
20260509142327 67 174 6.0 12.0 0.00 0.00 0.00 65 1012.4
20260509141819 67 182 6.0 12.0 0.00 0.00 0.00 66 1012.3
20260509141354 68 200 6.0 11.0 0.00 0.00 0.00 65 1012.3
20260509140824 68 141 5.0 15.0 0.00 0.00 0.00 64 1012.3
20260509140320 68 130 7.0 16.0 0.00 0.00 0.00 63 1012.3
20260509135834 68 132 9.0 16.0 0.00 0.00 0.00 63 1012.3
20260509135325 67 219 5.0 15.0 0.00 0.00 0.00 64 1012.3
20260509134817 67 189 6.0 15.0 0.00 0.00 0.00 63 1012.3
20260509134328 68 207 4.0 14.0 0.00 0.00 0.00 62 1012.4
20260509133823 67 213 6.0 14.0 0.00 0.00 0.00 61 1012.4
20260509133334 67 167 4.0 13.0 0.00 0.00 0.00 61 1012.4
20260509132824 66 188 5.0 13.0 0.00 0.00 0.00 62 1012.5
20260509132320 66 209 5.0 11.0 0.00 0.00 0.00 62 1012.4
20260509131832 66 126 5.0 11.0 0.00 0.00 0.00 63 1012.4
20260509131323 65 232 4.0 11.0 0.00 0.00 0.00 64 1012.5
20260509130835 65 182 5.0 11.0 0.00 0.00 0.00 66 1012.4
20260509130329 64 197 4.0 12.0 0.00 0.00 0.00 66 1012.4
20260509125819 64 200 5.0 9.0 0.00 0.00 0.00 67 1012.5
20260509125334 64 184 5.0 13.0 0.00 0.00 0.00 67 1012.6
20260509124826 63 221 6.0 13.0 0.00 0.00 0.00 67 1012.6
20260509124317 63 284 2.0 10.0 0.00 0.00 0.00 68 1012.5
20260509123815 63 223 3.0 8.0 0.00 0.00 0.00 68 1012.5
20260509123327 63 190 4.0 9.0 0.00 0.00 0.00 69 1012.6
20260509122818 62 284 3.0 14.0 0.00 0.00 0.00 69 1012.6
20260509122329 62 189 6.0 14.0 0.00 0.00 0.00 69 1012.6
20260509121819 62 144 6.0 12.0 0.00 0.00 0.00 70 1012.7
20260509121331 61 213 4.0 10.0 0.00 0.00 0.00 70 1012.7
20260509120824 61 239 5.0 10.0 0.00 0.00 0.00 71 1012.7
20260509120355 61 302 5.0 9.0 0.00 0.00 0.00 71 1012.8
20260509115824 60 168 3.0 11.0 0.00 0.00 0.00 72 1012.8
20260509115323 60 209 3.0 11.0 0.00 0.00 0.00 72 1012.8
20260509114834 60 252 4.0 10.0 0.00 0.00 0.00 72 1012.8
20260509114326 60 182 4.0 10.0 0.00 0.00 0.00 72 1012.9
20260509113817 59 207 5.0 9.0 0.00 0.00 0.00 72 1012.9
20260509113329 59 268 4.0 13.0 0.00 0.00 0.00 72 1012.8
20260509112819 59 239 5.0 13.0 0.00 0.00 0.00 73 1012.8
20260509112332 59 174 3.0 7.0 0.00 0.00 0.00 73 1012.8
20260509111824 59 248 5.0 9.0 0.00 0.00 0.00 73 1012.8
20260509111320 59 197 4.0 9.0 0.00 0.00 0.00 74 1012.8
20260509110831 58 172 1.0 9.0 0.00 0.00 0.00 74 1012.8
20260509110322 58 203 4.0 9.0 0.00 0.00 0.00 74 1012.9
20260509105814 58 229 3.0 6.0 0.00 0.00 0.00 74 1012.8
20260509105346 58 218 2.0 7.0 0.00 0.00 0.00 74 1012.9
20260509104836 58 208 3.0 10.0 0.00 0.00 0.00 74 1012.8
20260509104328 57 221 2.0 10.0 0.00 0.00 0.00 74 1012.8
20260509103818 57 204 3.0 8.0 0.00 0.00 0.00 74 1012.8
20260509103350 57 256 4.0 8.0 0.00 0.00 0.00 74 1012.8
20260509102821 57 186 4.0 8.0 0.00 0.00 0.00 74 1012.8
20260509102317 57 211 2.0 6.0 0.00 0.00 0.00 74 1012.7
20260509101847 56 234 1.0 6.0 0.00 0.00 0.00 74 1012.7
20260509101318 56 144 4.0 8.0 0.00 0.00 0.00 74 1012.7
20260509100813 56 209 3.0 8.0 0.00 0.00 0.00 74 1012.6
20260509100327 56 184 4.0 7.0 0.00 0.00 0.00 74 1012.6
20260509095818 56 182 2.0 5.0 0.00 0.00 0.00 73 1012.6
20260509095331 56 186 2.0 6.0 0.00 0.00 0.00 73 1012.7
20260509094822 56 154 2.0 7.0 0.00 0.00 0.00 73 1012.6
20260509094320 56 196 2.0 7.0 0.00 0.00 0.00 72 1012.5
20260509093832 56 215 3.0 5.0 0.00 0.00 0.00 71 1012.6
20260509093323 56 237 2.0 9.0 0.00 0.00 0.00 71 1012.5
20260509092815 56 225 3.0 9.0 0.00 0.00 0.00 71 1012.6
20260509092327 56 221 4.0 8.0 0.00 0.00 0.00 71 1012.6
20260509091818 56 200 3.0 8.0 0.00 0.00 0.00 71 1012.5
20260509091329 56 153 3.0 8.0 0.00 0.00 0.00 70 1012.5
20260509090820 56 184 4.0 8.0 0.00 0.00 0.00 70 1012.6
20260509090319 56 226 3.0 8.0 0.00 0.00 0.00 70 1012.7
20260509085851 56 184 1.0 5.0 0.00 0.00 0.00 70 1012.8
20260509085320 56 173 2.0 9.0 0.00 0.00 0.00 70 1012.8
20260509084831 56 209 3.0 9.0 0.00 0.00 0.00 70 1012.8
20260509084323 56 144 2.0 6.0 0.00 0.00 0.00 70 1012.9
20260509083814 56 206 3.0 6.0 0.00 0.00 0.00 70 1012.9
20260509083329 56 186 1.0 4.0 0.00 0.00 0.00 70 1012.9
20260509082821 56 207 2.0 3.0 0.00 0.00 0.00 69 1012.9
20260509082331 56 180 0.0 3.0 0.00 0.00 0.00 69 1012.9
20260509081827 56 243 1.0 6.0 0.00 0.00 0.00 69 1013.0
20260509081321 56 244 3.0 7.0 0.00 0.00 0.00 69 1013.1
20260509080853 56 260 2.0 4.0 0.00 0.00 0.00 69 1013.1
20260509080323 56 267 1.0 3.0 0.00 0.00 0.00 69 1013.0
20260509075815 56 232 1.0 3.0 0.00 0.00 0.00 69 1013.1
20260509075327 56 213 1.0 2.0 0.00 0.00 0.00 69 1013.2
20260509074817 56 240 1.0 4.0 0.00 0.00 0.00 69 1013.2
20260509074329 56 217 1.0 4.0 0.00 0.00 0.00 68 1013.2
20260509073821 56 199 2.0 4.0 0.00 0.00 0.00 68 1013.1
20260509073337 56 266 1.0 3.0 0.00 0.00 0.00 68 1013.1
20260509072812 56 257 2.0 3.0 0.00 0.00 0.00 68 1013.2
20260509072325 56 221 1.0 2.0 0.00 0.00 0.00 68 1013.2
20260509071817 56 229 1.0 3.0 0.00 0.00 0.00 68 1013.2
20260509071331 56 251 1.0 4.0 0.00 0.00 0.00 68 1013.2
20260509070823 56 190 1.0 5.0 0.00 0.00 0.00 68 1013.1
20260509070315 56 219 2.0 5.0 0.00 0.00 0.00 68 1013.0
20260509065826 56 236 1.0 4.0 0.00 0.00 0.00 68 1013.0
20260509065322 56 176 1.0 4.0 0.00 0.00 0.00 68 1013.0
20260509064814 56 240 1.0 4.0 0.00 0.00 0.00 67 1013.2
20260509064325 56 178 1.0 3.0 0.00 0.00 0.00 67 1013.2
20260509063817 56 210 1.0 2.0 0.00 0.00 0.00 67 1013.3
20260509063328 56 208 1.0 2.0 0.00 0.00 0.00 66 1013.3
20260509062820 56 257 1.0 4.0 0.00 0.00 0.00 66 1013.3
20260509062311 57 258 2.0 6.0 0.00 0.00 0.00 66 1013.3
20260509061825 57 250 2.0 6.0 0.00 0.00 0.00 66 1013.4
20260509061321 57 238 3.0 6.0 0.00 0.00 0.00 66 1013.5
20260509060832 57 250 2.0 6.0 0.00 0.00 0.00 66 1013.5
20260509060324 57 228 3.0 8.0 0.00 0.00 0.00 66 1013.5
20260509055815 57 246 3.0 8.0 0.00 0.00 0.00 66 1013.5
20260509055329 57 215 3.0 8.0 0.00 0.00 0.00 66 1013.5
20260509054820 57 260 3.0 7.0 0.00 0.00 0.00 66 1013.6
20260509054315 57 248 3.0 7.0 0.00 0.00 0.00 66 1013.5
20260509053827 57 215 3.0 7.0 0.00 0.00 0.00 66 1013.5
20260509053339 57 271 2.0 8.0 0.00 0.00 0.00 66 1013.6
20260509052815 57 223 3.0 8.0 0.00 0.00 0.00 66 1013.5
20260509052346 57 230 3.0 9.0 0.00 0.00 0.00 66 1013.6
20260509051816 57 263 3.0 9.0 0.00 0.00 0.00 66 1013.7
20260509051327 57 247 3.0 6.0 0.00 0.00 0.00 66 1013.7
20260509050818 57 207 3.0 6.0 0.00 0.00 0.00 66 1013.7
20260509050330 57 224 3.0 6.0 0.00 0.00 0.00 66 1013.7
20260509045841 57 244 2.0 6.0 0.00 0.00 0.00 66 1013.7
20260509045312 57 244 2.0 8.0 0.00 0.00 0.00 66 1013.7
20260509044826 57 234 4.0 7.0 0.00 0.00 0.00 67 1013.8
20260509044322 57 219 2.0 5.0 0.00 0.00 0.00 66 1013.7
20260509043834 57 239 2.0 7.0 0.00 0.00 0.00 66 1013.6
20260509043326 57 165 2.0 6.0 0.00 0.00 0.00 66 1013.6
20260509042822 57 186 2.0 4.0 0.00 0.00 0.00 66 1013.4
20260509042353 57 216 2.0 6.0 0.00 0.00 0.00 66 1013.5
20260509041824 57 246 2.0 6.0 0.00 0.00 0.00 66 1013.5
20260509041318 57 251 2.0 5.0 0.00 0.00 0.00 65 1013.4
20260509040829 57 250 2.0 7.0 0.00 0.00 0.00 65 1013.3
20260509040321 57 230 2.0 8.0 0.00 0.00 0.00 65 1013.3
20260509035851 58 199 2.0 5.0 0.00 0.00 0.00 65 1013.3
20260509035326 58 242 3.0 5.0 0.00 0.00 0.00 65 1013.4
20260509034817 58 236 2.0 7.0 0.00 0.00 0.00 64 1013.4
20260509034331 58 236 2.0 7.0 0.00 0.00 0.00 64 1013.4
20260509033823 58 136 3.0 7.0 0.00 0.00 0.00 64 1013.4
20260509033334 58 229 4.0 6.0 0.00 0.00 0.00 64 1013.3
20260509032845 58 228 2.0 4.0 0.00 0.00 0.00 63 1013.3
20260509031827 58 216 2.0 5.0 0.00 0.00 0.00 63 1013.3
20260509031319 58 229 2.0 5.0 0.00 0.00 0.00 63 1013.3